Time,TemperatureF,DewpointF,PressureIn,WindDirection,WindDirectionDegrees,WindSpeedMPH,WindSpeedGustMPH,Humidity,HourlyPrecipIn,Conditions,Clouds,dailyrainin,SoftwareType,DateUTC
2013-12-08 00:00:00,76.3,76.3,30.05,NE,37,4.0,4.0,100,0.00,,,0.00,Wunderground v.1.15,2013-12-08 05:00:00,
2013-12-08 00:05:00,76.3,-99.9,30.05,NE,52,2.0,5.0,255,0.00,,,0.00,Wunderground v.1.15,2013-12-08 05:05:00,
2013-12-08 00:10:00,76.1,76.1,30.05,NNE,27,1.0,1.0,100,0.00,,,0.00,Wunderground v.1.15,2013-12-08 05:10:00,
2013-12-08 00:15:00,76.1,76.1,30.05,NE,54,1.0,10.0,100,0.00,,,0.00,Wunderground v.1.15,2013-12-08 05:15:00,
2013-12-08 00:20:00,76.1,76.1,30.05,NE,48,3.0,5.0,100,0.00,,,0.00,Wunderground v.1.15,2013-12-08 05:20:00,
2013-12-08 00:30:00,75.8,75.8,30.05,NE,38,4.0,4.0,100,0.00,,,0.00,Wunderground v.1.15,2013-12-08 05:30:00,
2013-12-08 00:35:00,75.6,75.6,30.05,NE,48,3.0,4.0,100,0.00,,,0.00,Wunderground v.1.15,2013-12-08 05:35:00,
2013-12-08 00:45:00,75.8,75.8,30.04,ENE,75,2.0,3.0,100,0.00,,,0.00,Wunderground v.1.15,2013-12-08 05:45:00,
2013-12-08 00:55:00,76.0,76.0,30.04,East,79,4.0,5.0,100,0.00,,,0.00,Wunderground v.1.15,2013-12-08 05:55:00,
2013-12-08 01:05:00,76.5,76.5,30.04,ENE,61,4.0,6.0,100,0.00,,,0.00,Wunderground v.1.15,2013-12-08 06:05:00,
2013-12-08 01:10:00,76.5,76.5,30.04,ENE,64,5.0,5.0,100,0.00,,,0.00,Wunderground v.1.15,2013-12-08 06:10:00,
2013-12-08 01:20:00,76.8,76.8,30.03,East,86,7.0,8.0,100,0.00,,,0.00,Wunderground v.1.15,2013-12-08 06:20:00,
2013-12-08 01:30:00,77.0,77.0,30.03,East,85,6.0,8.0,100,0.00,,,0.00,Wunderground v.1.15,2013-12-08 06:30:00,
2013-12-08 01:40:00,77.2,77.2,30.03,ESE,113,7.0,10.0,100,0.00,,,0.00,Wunderground v.1.15,2013-12-08 06:40:00,
2013-12-08 01:45:00,76.3,76.3,30.03,East,99,7.0,10.0,100,0.00,,,0.00,Wunderground v.1.15,2013-12-08 06:45:00,
2013-12-08 01:55:00,75.8,75.8,30.03,ESE,103,9.0,11.0,100,0.00,,,0.00,Wunderground v.1.15,2013-12-08 06:55:00,
2013-12-08 02:00:00,75.1,75.1,30.03,ESE,103,9.0,9.0,100,0.00,,,0.00,Wunderground v.1.15,2013-12-08 07:00:00,
2013-12-08 02:10:00,75.4,75.4,30.03,East,85,5.0,11.0,100,0.00,,,0.00,Wunderground v.1.15,2013-12-08 07:10:00,
2013-12-08 02:20:00,76.3,76.3,30.02,East,86,6.0,11.0,100,0.00,,,0.00,Wunderground v.1.15,2013-12-08 07:20:00,
2013-12-08 02:30:00,76.5,76.5,30.02,East,95,6.0,7.0,100,0.00,,,0.00,Wunderground v.1.15,2013-12-08 07:30:00,
2013-12-08 02:35:00,76.7,76.7,30.02,ENE,78,7.0,7.0,100,0.00,,,0.00,Wunderground v.1.15,2013-12-08 07:35:00,
2013-12-08 02:45:00,76.5,76.5,30.01,ENE,76,6.0,8.0,100,0.00,,,0.00,Wunderground v.1.15,2013-12-08 07:45:00,
2013-12-08 02:55:00,77.0,77.0,30.01,ENE,68,6.0,10.0,100,0.00,,,0.00,Wunderground v.1.15,2013-12-08 07:55:00,
2013-12-08 03:00:00,77.0,77.0,30.01,ENE,69,7.0,12.0,100,0.00,,,0.00,Wunderground v.1.15,2013-12-08 08:00:00,
2013-12-08 03:10:00,77.0,77.0,30.01,East,85,9.0,9.0,100,0.00,,,0.00,Wunderground v.1.15,2013-12-08 08:10:00,
2013-12-08 03:20:00,77.0,77.0,30.01,ENE,76,9.0,9.0,100,0.00,,,0.00,Wunderground v.1.15,2013-12-08 08:20:00,
2013-12-08 03:30:00,77.2,77.2,30.01,ENE,65,8.0,8.0,100,0.00,,,0.00,Wunderground v.1.15,2013-12-08 08:30:00,
2013-12-08 03:40:00,77.2,77.2,30.01,NE,56,7.0,7.0,100,0.00,,,0.00,Wunderground v.1.15,2013-12-08 08:40:00,
2013-12-08 03:50:00,77.0,77.0,30.01,East,88,6.0,11.0,100,0.00,,,0.00,Wunderground v.1.15,2013-12-08 08:50:00,
2013-12-08 03:55:00,77.0,77.0,30.01,ENE,61,7.0,11.0,100,0.00,,,0.00,Wunderground v.1.15,2013-12-08 08:55:00,
2013-12-08 04:05:00,77.2,77.2,30.01,ENE,58,8.0,13.0,100,0.00,,,0.00,Wunderground v.1.15,2013-12-08 09:05:00,
2013-12-08 04:15:00,77.0,77.0,30.01,ENE,76,7.0,8.0,100,0.00,,,0.00,Wunderground v.1.15,2013-12-08 09:15:00,
2013-12-08 04:25:00,77.0,77.0,30.01,East,92,7.0,12.0,100,0.00,,,0.00,Wunderground v.1.15,2013-12-08 09:25:00,
2013-12-08 04:30:00,76.8,76.8,30.01,ESE,103,7.0,16.0,100,0.00,,,0.00,Wunderground v.1.15,2013-12-08 09:30:00,
2013-12-08 04:40:00,76.8,76.8,30.01,ENE,76,8.0,8.0,100,0.00,,,0.00,Wunderground v.1.15,2013-12-08 09:40:00,
2013-12-08 04:50:00,77.0,77.0,30.02,ENE,71,8.0,11.0,100,0.00,,,0.00,Wunderground v.1.15,2013-12-08 09:50:00,
2013-12-08 05:00:00,76.8,76.8,30.02,ENE,75,7.0,7.0,100,0.00,,,0.00,Wunderground v.1.15,2013-12-08 10:00:00,
2013-12-08 05:05:00,77.0,77.0,30.02,ENE,72,8.0,8.0,100,0.00,,,0.00,Wunderground v.1.15,2013-12-08 10:05:00,
2013-12-08 05:15:00,77.0,77.0,30.02,ENE,76,7.0,8.0,100,0.00,,,0.00,Wunderground v.1.15,2013-12-08 10:15:00,
2013-12-08 05:25:00,76.8,76.8,30.02,East,83,8.0,12.0,100,0.00,,,0.00,Wunderground v.1.15,2013-12-08 10:25:00,
2013-12-08 05:35:00,76.8,76.8,30.03,ENE,62,7.0,12.0,100,0.00,,,0.00,Wunderground v.1.15,2013-12-08 10:35:00,
2013-12-08 05:45:00,77.0,77.0,30.03,ENE,61,7.0,11.0,100,0.00,,,0.00,Wunderground v.1.15,2013-12-08 10:45:00,
2013-12-08 05:50:00,76.8,76.8,30.03,East,86,7.0,10.0,100,0.00,,,0.00,Wunderground v.1.15,2013-12-08 10:50:00,
2013-12-08 06:00:00,77.0,77.0,30.03,East,92,6.0,10.0,100,0.00,,,0.00,Wunderground v.1.15,2013-12-08 11:00:00,
2013-12-08 06:05:00,77.0,77.0,30.03,East,89,7.0,10.0,100,0.00,,,0.00,Wunderground v.1.15,2013-12-08 11:05:00,
2013-12-08 06:15:00,77.0,77.0,30.04,ENE,72,7.0,7.0,100,0.00,,,0.00,Wunderground v.1.15,2013-12-08 11:15:00,
2013-12-08 06:25:00,77.0,77.0,30.04,NE,40,7.0,7.0,100,0.00,,,0.00,Wunderground v.1.15,2013-12-08 11:25:00,
2013-12-08 06:35:00,76.8,76.8,30.04,ENE,62,6.0,7.0,100,0.00,,,0.00,Wunderground v.1.15,2013-12-08 11:35:00,
2013-12-08 06:40:00,76.8,76.8,30.04,ESE,110,6.0,6.0,100,0.00,,,0.00,Wunderground v.1.15,2013-12-08 11:40:00,
2013-12-08 06:50:00,76.7,76.7,30.05,East,97,5.0,5.0,100,0.00,,,0.00,Wunderground v.1.15,2013-12-08 11:50:00,
2013-12-08 06:55:00,76.7,76.7,30.05,ESE,109,6.0,6.0,100,0.00,,,0.00,Wunderground v.1.15,2013-12-08 11:55:00,
2013-12-08 07:05:00,76.8,76.8,30.05,East,86,5.0,8.0,100,0.00,,,0.00,Wunderground v.1.15,2013-12-08 12:05:00,
2013-12-08 07:10:00,76.8,76.8,30.05,East,80,6.0,7.0,100,0.00,,,0.00,Wunderground v.1.15,2013-12-08 12:10:00,
2013-12-08 07:20:00,77.0,77.0,30.06,East,86,6.0,6.0,100,0.00,,,0.00,Wunderground v.1.15,2013-12-08 12:20:00,
2013-12-08 07:25:00,77.2,77.2,30.06,ENE,73,7.0,12.0,100,0.00,,,0.00,Wunderground v.1.15,2013-12-08 12:25:00,
2013-12-08 07:35:00,77.4,77.4,30.06,ENE,69,6.0,7.0,100,0.00,,,0.00,Wunderground v.1.15,2013-12-08 12:35:00,
2013-12-08 07:40:00,77.6,77.6,30.06,East,97,6.0,6.0,100,0.00,,,0.00,Wunderground v.1.15,2013-12-08 12:40:00,
2013-12-08 07:50:00,77.4,77.4,30.07,ENE,76,7.0,7.0,100,0.00,,,0.00,Wunderground v.1.15,2013-12-08 12:50:00,
2013-12-08 07:55:00,77.2,77.2,30.07,ENE,68,7.0,7.0,100,0.00,,,0.00,Wunderground v.1.15,2013-12-08 12:55:00,
2013-12-08 08:05:00,77.6,77.6,30.07,ESE,104,8.0,8.0,100,0.00,,,0.00,Wunderground v.1.15,2013-12-08 13:05:00,
2013-12-08 08:15:00,77.7,77.7,30.08,ENE,72,7.0,8.0,100,0.00,,,0.00,Wunderground v.1.15,2013-12-08 13:15:00,
2013-12-08 08:25:00,78.1,78.1,30.08,ENE,71,7.0,11.0,100,0.00,,,0.00,Wunderground v.1.15,2013-12-08 13:25:00,
2013-12-08 08:35:00,78.3,78.3,30.09,ESE,112,5.0,6.0,100,0.00,,,0.00,Wunderground v.1.15,2013-12-08 13:35:00,
2013-12-08 08:40:00,78.3,78.3,30.09,ENE,72,6.0,6.0,100,0.00,,,0.00,Wunderground v.1.15,2013-12-08 13:40:00,
2013-12-08 08:50:00,78.5,78.5,30.09,ESE,102,6.0,6.0,100,0.00,,,0.00,Wunderground v.1.15,2013-12-08 13:50:00,
2013-12-08 09:00:00,78.6,78.6,30.09,ENE,76,6.0,7.0,100,0.00,,,0.00,Wunderground v.1.15,2013-12-08 14:00:00,
2013-12-08 09:05:00,78.8,78.8,30.09,East,100,6.0,7.0,100,0.00,,,0.00,Wunderground v.1.15,2013-12-08 14:05:00,
2013-12-08 09:15:00,79.0,79.0,30.09,East,86,7.0,7.0,100,0.00,,,0.00,Wunderground v.1.15,2013-12-08 14:15:00,
2013-12-08 09:20:00,79.2,79.2,30.09,ESE,103,6.0,6.0,100,0.00,,,0.00,Wunderground v.1.15,2013-12-08 14:20:00,
2013-12-08 09:30:00,79.4,79.4,30.09,ESE,106,5.0,6.0,100,0.00,,,0.00,Wunderground v.1.15,2013-12-08 14:30:00,
2013-12-08 09:35:00,79.2,79.2,30.09,East,88,7.0,7.0,100,0.00,,,0.00,Wunderground v.1.15,2013-12-08 14:35:00,
2013-12-08 09:40:00,79.0,79.0,30.09,ESE,114,6.0,8.0,100,0.00,,,0.00,Wunderground v.1.15,2013-12-08 14:40:00,
2013-12-08 09:50:00,79.6,79.6,30.09,East,95,6.0,6.0,100,0.00,,,0.00,Wunderground v.1.15,2013-12-08 14:50:00,
2013-12-08 09:55:00,79.6,79.6,30.09,East,99,6.0,6.0,100,0.00,,,0.00,Wunderground v.1.15,2013-12-08 14:55:00,
2013-12-08 10:05:00,79.8,79.8,30.09,East,79,7.0,10.0,100,0.00,,,0.00,Wunderground v.1.15,2013-12-08 15:05:00,
2013-12-08 10:15:00,79.9,79.9,30.09,East,95,4.0,6.0,100,0.00,,,0.00,Wunderground v.1.15,2013-12-08 15:15:00,
2013-12-08 10:25:00,79.8,79.8,30.09,East,79,6.0,6.0,100,0.00,,,0.00,Wunderground v.1.15,2013-12-08 15:25:00,
2013-12-08 10:35:00,79.9,79.9,30.09,East,79,6.0,10.0,100,0.00,,,0.00,Wunderground v.1.15,2013-12-08 15:35:00,
2013-12-08 10:40:00,80.1,80.1,30.09,East,88,6.0,7.0,100,0.00,,,0.00,Wunderground v.1.15,2013-12-08 15:40:00,
2013-12-08 10:50:00,80.1,80.1,30.09,ESE,112,6.0,10.0,100,0.00,,,0.00,Wunderground v.1.15,2013-12-08 15:50:00,
2013-12-08 10:55:00,80.3,80.3,30.09,ESE,103,6.0,10.0,100,0.00,,,0.00,Wunderground v.1.15,2013-12-08 15:55:00,
2013-12-08 11:05:00,80.1,80.1,30.08,East,86,6.0,13.0,100,0.00,,,0.00,Wunderground v.1.15,2013-12-08 16:05:00,
2013-12-08 11:10:00,80.3,80.3,30.08,ENE,71,6.0,10.0,100,0.00,,,0.00,Wunderground v.1.15,2013-12-08 16:10:00,
2013-12-08 11:20:00,80.3,80.3,30.08,ENE,73,6.0,8.0,100,0.00,,,0.00,Wunderground v.1.15,2013-12-08 16:20:00,
2013-12-08 11:25:00,80.1,80.1,30.08,East,79,7.0,8.0,100,0.00,,,0.00,Wunderground v.1.15,2013-12-08 16:25:00,
2013-12-08 11:35:00,79.9,79.9,30.07,ESE,109,6.0,10.0,100,0.00,,,0.00,Wunderground v.1.15,2013-12-08 16:35:00,
2013-12-08 11:40:00,79.9,79.9,30.07,ESE,112,7.0,7.0,100,0.00,,,0.00,Wunderground v.1.15,2013-12-08 16:40:00,
2013-12-08 11:50:00,80.3,80.3,30.07,East,85,7.0,8.0,100,0.00,,,0.00,Wunderground v.1.15,2013-12-08 16:50:00,
2013-12-08 12:00:00,80.3,80.3,30.06,ESE,106,7.0,7.0,100,0.00,,,0.00,Wunderground v.1.15,2013-12-08 17:00:00,
2013-12-08 12:05:00,80.5,80.5,30.06,ENE,75,7.0,7.0,100,0.00,,,0.00,Wunderground v.1.15,2013-12-08 17:05:00,
2013-12-08 12:15:00,80.5,80.5,30.05,ESE,116,6.0,7.0,100,0.00,,,0.00,Wunderground v.1.15,2013-12-08 17:15:00,
2013-12-08 12:25:00,80.7,80.7,30.05,East,86,6.0,7.0,100,0.00,,,0.00,Wunderground v.1.15,2013-12-08 17:25:00,
2013-12-08 12:35:00,80.7,80.7,30.05,ENE,69,6.0,11.0,100,0.00,,,0.00,Wunderground v.1.15,2013-12-08 17:35:00,
2013-12-08 12:40:00,80.7,80.7,30.05,East,100,6.0,6.0,100,0.00,,,0.00,Wunderground v.1.15,2013-12-08 17:40:00,
2013-12-08 12:50:00,80.1,80.1,30.04,East,100,7.0,7.0,100,0.00,,,0.00,Wunderground v.1.15,2013-12-08 17:50:00,
2013-12-08 13:00:00,80.5,80.5,30.03,East,79,6.0,7.0,100,0.00,,,0.00,Wunderground v.1.15,2013-12-08 18:00:00,
2013-12-08 13:10:00,80.5,-99.9,30.03,ESE,104,6.0,7.0,255,0.00,,,0.00,Wunderground v.1.15,2013-12-08 18:10:00,
2013-12-08 13:15:00,80.5,80.5,30.03,ESE,117,7.0,7.0,100,0.00,,,0.00,Wunderground v.1.15,2013-12-08 18:15:00,
2013-12-08 13:25:00,80.7,80.7,30.03,ENE,78,6.0,7.0,100,0.00,,,0.00,Wunderground v.1.15,2013-12-08 18:25:00,
2013-12-08 13:30:00,80.5,80.5,30.02,ENE,73,5.0,5.0,100,0.00,,,0.00,Wunderground v.1.15,2013-12-08 18:30:00,
2013-12-08 13:40:00,80.7,80.7,30.02,East,82,6.0,10.0,100,0.00,,,0.00,Wunderground v.1.15,2013-12-08 18:40:00,
2013-12-08 13:50:00,80.7,80.7,30.02,ENE,72,6.0,6.0,100,0.00,,,0.00,Wunderground v.1.15,2013-12-08 18:50:00,
2013-12-08 13:55:00,80.7,80.7,30.02,ENE,68,6.0,6.0,100,0.00,,,0.00,Wunderground v.1.15,2013-12-08 18:55:00,
2013-12-08 14:05:00,80.9,80.9,30.02,ESE,107,5.0,7.0,100,0.00,,,0.00,Wunderground v.1.15,2013-12-08 19:05:00,
2013-12-08 14:10:00,80.9,80.9,30.02,ESE,107,5.0,8.0,100,0.00,,,0.00,Wunderground v.1.15,2013-12-08 19:10:00,
2013-12-08 14:20:00,80.7,-99.9,30.01,East,80,5.0,5.0,255,0.00,,,0.00,Wunderground v.1.15,2013-12-08 19:20:00,
2013-12-08 14:25:00,80.7,80.7,30.01,ESE,103,6.0,11.0,100,0.00,,,0.00,Wunderground v.1.15,2013-12-08 19:25:00,
2013-12-08 14:35:00,80.5,80.5,30.01,East,86,6.0,6.0,100,0.00,,,0.00,Wunderground v.1.15,2013-12-08 19:35:00,
2013-12-08 14:45:00,80.5,80.5,30.01,ENE,76,6.0,7.0,100,0.00,,,0.00,Wunderground v.1.15,2013-12-08 19:45:00,
2013-12-08 14:55:00,80.3,80.3,30.01,East,97,5.0,5.0,100,0.00,,,0.00,Wunderground v.1.15,2013-12-08 19:55:00,
2013-12-08 15:00:00,80.3,80.3,30.01,East,90,6.0,8.0,100,0.00,,,0.00,Wunderground v.1.15,2013-12-08 20:00:00,
2013-12-08 15:10:00,80.3,80.3,30.01,East,86,6.0,6.0,100,0.00,,,0.00,Wunderground v.1.15,2013-12-08 20:10:00,
2013-12-08 15:20:00,80.1,80.1,30.01,East,89,5.0,5.0,100,0.00,,,0.00,Wunderground v.1.15,2013-12-08 20:20:00,
2013-12-08 15:25:00,79.9,79.9,30.01,East,95,5.0,7.0,100,0.00,,,0.00,Wunderground v.1.15,2013-12-08 20:25:00,
2013-12-08 15:35:00,79.9,79.9,30.01,East,85,5.0,7.0,100,0.00,,,0.00,Wunderground v.1.15,2013-12-08 20:35:00,
2013-12-08 15:40:00,80.1,80.1,30.01,East,93,4.0,6.0,100,0.00,,,0.00,Wunderground v.1.15,2013-12-08 20:40:00,
2013-12-08 15:50:00,79.8,79.8,30.01,East,88,5.0,5.0,100,0.00,,,0.00,Wunderground v.1.15,2013-12-08 20:50:00,
2013-12-08 15:55:00,79.9,79.9,30.01,ESE,116,5.0,6.0,100,0.00,,,0.00,Wunderground v.1.15,2013-12-08 20:55:00,
2013-12-08 16:05:00,79.6,79.6,30.01,ESE,110,5.0,6.0,100,0.00,,,0.00,Wunderground v.1.15,2013-12-08 21:05:00,
2013-12-08 16:10:00,79.4,79.4,30.01,ESE,104,5.0,5.0,100,0.00,,,0.00,Wunderground v.1.15,2013-12-08 21:10:00,
2013-12-08 16:20:00,79.2,79.2,30.01,ENE,68,4.0,5.0,100,0.00,,,0.00,Wunderground v.1.15,2013-12-08 21:20:00,
2013-12-08 16:25:00,79.2,-99.9,30.01,East,85,5.0,5.0,255,0.00,,,0.00,Wunderground v.1.15,2013-12-08 21:25:00,
2013-12-08 16:35:00,79.0,79.0,30.01,East,92,5.0,5.0,100,0.00,,,0.00,Wunderground v.1.15,2013-12-08 21:35:00,
2013-12-08 16:45:00,78.8,78.8,30.01,ENE,71,5.0,12.0,100,0.00,,,0.00,Wunderground v.1.15,2013-12-08 21:45:00,
2013-12-08 16:55:00,78.8,78.8,30.01,ENE,76,4.0,5.0,100,0.00,,,0.00,Wunderground v.1.15,2013-12-08 21:55:00,
2013-12-08 17:05:00,78.6,78.6,30.01,East,82,5.0,9.0,100,0.00,,,0.00,Wunderground v.1.15,2013-12-08 22:05:00,
2013-12-08 17:15:00,78.5,78.5,30.01,ENE,64,5.0,6.0,100,0.00,,,0.00,Wunderground v.1.15,2013-12-08 22:15:00,
2013-12-08 17:20:00,78.3,78.3,30.01,ENE,73,4.0,4.0,100,0.00,,,0.00,Wunderground v.1.15,2013-12-08 22:20:00,
2013-12-08 17:30:00,78.3,78.3,30.01,ENE,75,5.0,5.0,100,0.00,,,0.00,Wunderground v.1.15,2013-12-08 22:30:00,
2013-12-08 17:35:00,78.3,78.3,30.01,ENE,69,4.0,7.0,100,0.00,,,0.00,Wunderground v.1.15,2013-12-08 22:35:00,
2013-12-08 17:45:00,78.1,78.1,30.01,SE,141,6.0,6.0,100,0.00,,,0.00,Wunderground v.1.15,2013-12-08 22:45:00,
2013-12-08 17:55:00,78.1,78.1,30.01,ESE,109,4.0,7.0,100,0.00,,,0.00,Wunderground v.1.15,2013-12-08 22:55:00,
2013-12-08 18:05:00,78.1,78.1,30.01,ESE,121,5.0,6.0,100,0.00,,,0.00,Wunderground v.1.15,2013-12-08 23:05:00,
2013-12-08 18:15:00,78.1,78.1,30.02,ESE,107,5.0,7.0,100,0.00,,,0.00,Wunderground v.1.15,2013-12-08 23:15:00,
2013-12-08 18:25:00,78.3,78.3,30.02,ESE,123,5.0,6.0,100,0.00,,,0.00,Wunderground v.1.15,2013-12-08 23:25:00,
2013-12-08 18:35:00,78.1,78.1,30.02,East,96,5.0,11.0,100,0.00,,,0.00,Wunderground v.1.15,2013-12-08 23:35:00,
2013-12-08 18:40:00,78.3,78.3,30.02,ESE,112,6.0,12.0,100,0.00,,,0.00,Wunderground v.1.15,2013-12-08 23:40:00,
2013-12-08 18:50:00,78.3,78.3,30.03,ESE,103,5.0,5.0,100,0.00,,,0.00,Wunderground v.1.15,2013-12-08 23:50:00,
2013-12-08 18:55:00,78.3,78.3,30.03,SE,131,5.0,7.0,100,0.00,,,0.00,Wunderground v.1.15,2013-12-08 23:55:00,
2013-12-08 19:05:00,78.3,78.3,30.03,ESE,112,4.0,5.0,100,0.00,,,0.00,Wunderground v.1.15,2013-12-09 00:05:00,
2013-12-08 19:15:00,78.3,78.3,30.03,ESE,116,6.0,10.0,100,0.00,,,0.00,Wunderground v.1.15,2013-12-09 00:15:00,
2013-12-08 19:25:00,78.3,78.3,30.03,ESE,119,6.0,6.0,100,0.00,,,0.00,Wunderground v.1.15,2013-12-09 00:25:00,
2013-12-08 19:30:00,78.3,78.3,30.03,East,95,7.0,7.0,100,0.00,,,0.00,Wunderground v.1.15,2013-12-09 00:30:00,
2013-12-08 19:40:00,78.3,78.3,30.03,ESE,109,6.0,6.0,100,0.00,,,0.00,Wunderground v.1.15,2013-12-09 00:40:00,
2013-12-08 19:50:00,78.5,78.5,30.03,ESE,103,7.0,7.0,100,0.00,,,0.00,Wunderground v.1.15,2013-12-09 00:50:00,
2013-12-08 19:55:00,78.5,78.5,30.03,East,100,6.0,7.0,100,0.00,,,0.00,Wunderground v.1.15,2013-12-09 00:55:00,
2013-12-08 20:05:00,78.5,78.5,30.04,ESE,120,7.0,11.0,100,0.00,,,0.00,Wunderground v.1.15,2013-12-09 01:05:00,
2013-12-08 20:15:00,78.5,78.5,30.04,ESE,104,7.0,9.0,100,0.00,,,0.00,Wunderground v.1.15,2013-12-09 01:15:00,
2013-12-08 20:20:00,78.3,78.3,30.04,ENE,78,6.0,6.0,100,0.00,,,0.00,Wunderground v.1.15,2013-12-09 01:20:00,
2013-12-08 20:30:00,78.5,78.5,30.04,East,95,4.0,4.0,100,0.00,,,0.00,Wunderground v.1.15,2013-12-09 01:30:00,
2013-12-08 20:40:00,78.3,78.3,30.04,East,96,6.0,6.0,100,0.00,,,0.00,Wunderground v.1.15,2013-12-09 01:40:00,
2013-12-08 20:45:00,78.3,78.3,30.04,ENE,66,5.0,6.0,100,0.00,,,0.00,Wunderground v.1.15,2013-12-09 01:45:00,
2013-12-08 20:55:00,78.1,78.1,30.04,East,90,4.0,5.0,100,0.00,,,0.00,Wunderground v.1.15,2013-12-09 01:55:00,
2013-12-08 21:05:00,78.1,78.1,30.04,ESE,117,5.0,5.0,100,0.00,,,0.00,Wunderground v.1.15,2013-12-09 02:05:00,
2013-12-08 21:15:00,78.1,78.1,30.04,ESE,106,5.0,6.0,100,0.00,,,0.00,Wunderground v.1.15,2013-12-09 02:15:00,
2013-12-08 21:25:00,77.9,77.9,30.04,East,88,4.0,10.0,100,0.00,,,0.00,Wunderground v.1.15,2013-12-09 02:25:00,
2013-12-08 21:35:00,77.9,77.9,30.04,East,92,6.0,6.0,100,0.00,,,0.00,Wunderground v.1.15,2013-12-09 02:35:00,
2013-12-08 21:45:00,78.3,78.3,30.04,ESE,119,7.0,13.0,100,0.00,,,0.00,Wunderground v.1.15,2013-12-09 02:45:00,
2013-12-08 21:55:00,78.5,78.5,30.04,ESE,120,8.0,8.0,100,0.00,,,0.00,Wunderground v.1.15,2013-12-09 02:55:00,
2013-12-08 22:05:00,78.6,78.6,30.04,ESE,104,8.0,17.0,100,0.00,,,0.00,Wunderground v.1.15,2013-12-09 03:05:00,
2013-12-08 22:10:00,78.6,78.6,30.04,East,88,8.0,10.0,100,0.00,,,0.00,Wunderground v.1.15,2013-12-09 03:10:00,
2013-12-08 22:20:00,78.5,78.5,30.04,SE,144,7.0,8.0,100,0.00,,,0.00,Wunderground v.1.15,2013-12-09 03:20:00,
2013-12-08 22:30:00,78.5,78.5,30.04,ESE,117,7.0,7.0,100,0.00,,,0.00,Wunderground v.1.15,2013-12-09 03:30:00,
2013-12-08 22:40:00,78.5,78.5,30.04,East,90,7.0,7.0,100,0.00,,,0.00,Wunderground v.1.15,2013-12-09 03:40:00,
2013-12-08 22:45:00,78.5,78.5,30.04,ESE,107,8.0,8.0,100,0.00,,,0.00,Wunderground v.1.15,2013-12-09 03:45:00,
2013-12-08 22:55:00,78.5,78.5,30.04,SE,128,7.0,10.0,100,0.00,,,0.00,Wunderground v.1.15,2013-12-09 03:55:00,
2013-12-08 23:05:00,78.3,78.3,30.04,East,80,6.0,7.0,100,0.00,,,0.00,Wunderground v.1.15,2013-12-09 04:05:00,
2013-12-08 23:55:00,78.6,78.6,30.03,ESE,106,8.0,12.0,100,0.00,,,0.00,Wunderground v.1.15,2013-12-09 04:55:00,